Content
SEND FEEDBACK

Daily
Averages
Monthly
Summary
United States of America

ST. LOUIS, MISSOURI


Home > North America > United States > Missouri
Elevation: 535 feet     Latitude: 38 45N     Longitude: 090 22W

WEATHER
 
SELECT A DAY
Number of Records: 196,395;   Date Range: 1/1/95 - 7/29/14
 
SHARE

PRINT THIS DATA

[ ← Previous Day ]
WEATHER ALMANAC - FEBRUARY 18, 2013
[ Next Day → ]
[ °C ]   °F
Weather ElementAverageHighLow
Temperature47 °F57.9 °F (10:54 am)33.1 °F (11:54 pm)
Dewpoint37.8 °F48.2 °F (6:10 pm)23 °F (11:20 pm)
Humidity71.2 %88 % (6:10 pm)57 % (9:54 am)
Barometer29.74 in29.94 in (11:54 pm)29.56 in (5:54 pm)
Wind Speed15.1 mph27.6 mph (7:20 pm)
Wind Gust35.7 mph (7:20 pm)
Weather ElementAverage
Visibility9.2 mi
Wind DirectionSW (222.8 °)

Weather ElementTotal
Precipitation0.24 in
Heating Degree Days19.5 (Base 65)
Averaged from 29 records on February 18, 2013
WEATHER CONDITIONS BREAKOUT
WIND DIRECTION BREAKOUT
WEATHER BY HOUR - FEBRUARY 18, 2013
[ °C ]   °F
Local TimeTemperatureDewpointHumidityBarometerVisibilityWind DirectionWind SpeedGust SpeedPrecipitationEventsConditions
1:54 AM36.0 °F28.9 °F76 %29.88 in10.0 miCalmClear
2:54 AM39.9 °F30.0 °F68 %29.85 in10.0 miSouth (180°)3.5 mphClear
3:54 AM46.0 °F33.1 °F61 %29.83 in10.0 miSouth (190°)9.2 mphClear
4:54 AM46.0 °F34.0 °F63 %29.81 in10.0 miSSW (200°)8.1 mphClear
5:54 AM46.0 °F35.1 °F66 %29.81 in10.0 miSouth (190°)6.9 mph18.4 mphClear
6:54 AM46.9 °F36.0 °F66 %29.80 in10.0 miSSW (200°)5.8 mphMostly Cloudy
7:54 AM48.9 °F37.0 °F64 %29.78 in10.0 miSSW (200°)8.1 mph17.3 mphOvercast
8:54 AM54.0 °F39.9 °F59 %29.78 in10.0 miSouth (180°)8.1 mph23.0 mphMostly Cloudy
9:54 AM57.0 °F42.1 °F57 %29.75 in10.0 miSSW (210°)19.6 mph33.4 mphMostly Cloudy
10:54 AM57.9 °F43.0 °F58 %29.74 in10.0 miSouth (190°)19.6 mph32.2 mphMostly Cloudy
11:54 AM55.9 °F44.1 °F64 %29.72 in10.0 miSouth (190°)12.7 mph31.1 mphOvercast
12:08 PM55.4 °F44.6 °F67 %29.71 in10.0 miSSW (200°)19.6 mph28.8 mphOvercast
12:54 PM55.9 °F44.1 °F64 %29.69 in10.0 miSouth (190°)20.7 mph32.2 mphOvercast
1:54 PM55.0 °F44.1 °F67 %29.65 in10.0 miSouth (180°)12.7 mph24.2 mph0.00 inRainLight Rain
2:54 PM55.0 °F44.1 °F67 %29.60 in10.0 miSouth (180°)12.7 mph24.2 mph0.00 inOvercast
3:54 PM52.0 °F46.9 °F83 %29.58 in4.0 miSouth (180°)12.7 mph20.7 mph0.01 inRainLight Rain
5:54 PM51.1 °F46.9 °F86 %29.56 in6.0 miSouth (180°)12.7 mph19.6 mph0.07 inRainRain
6:03 PM51.8 °F46.4 °F82 %29.58 in5.0 miWSW (250°)18.4 mph24.2 mph0.01 inRainLight Rain
6:10 PM51.8 °F48.2 °F88 %29.59 in5.0 miWest (260°)17.3 mph0.03 inRainLight Rain
6:19 PM51.8 °F46.4 °F82 %29.61 in6.0 miWest (280°)23.0 mph31.1 mph0.04 inRainLight Rain
6:38 PM46.4 °F42.8 °F87 %29.65 in10.0 miWNW (290°)23.0 mph31.1 mph0.04 inOvercast
6:54 PM43.0 °F37.9 °F82 %29.68 in10.0 miWNW (300°)23.0 mph32.2 mph0.04 inOvercast
7:20 PM41.0 °F35.6 °F81 %29.71 in10.0 miNW (310°)27.6 mph35.7 mphOvercast
7:54 PM39.9 °F34.0 °F79 %29.76 in10.0 miWNW (300°)13.8 mph24.2 mphOvercast
8:54 PM39.9 °F33.1 °F77 %29.79 in10.0 miWNW (290°)26.5 mph34.5 mphOvercast
9:54 PM36.0 °F27.0 °F70 %29.86 in10.0 miWNW (300°)23.0 mph29.9 mphOvercast
10:54 PM35.1 °F26.1 °F70 %29.90 in10.0 miWest (280°)18.4 mph29.9 mphOvercast
11:20 PM33.8 °F23.0 °F65 %29.91 in10.0 miWest (270°)20.7 mph34.5 mphOvercast
11:54 PM33.1 °F23.0 °F66 %29.94 in10.0 miWNW (290°)10.4 mph23.0 mphMostly Cloudy
Hourly data recorded from KSUS, located miles away from St. Louis, Missouri







STORIES FROM OUR PARTNERS